[[{"header":{"parameterUnit":"m.s-1","parameterCategory":1,"la1":30.2991,"la2":30.254,"lo1":-89.0895,"lo2":-89.0444,"dy":0.0017,"dx":0.0017,"nx":28,"ny":28,"refTime":"2023-10-09T21:00:00:Z","depth":0,"parameterNumber":2,"parameterNumberName":"U-component_of_WINDS"},"data":[0,0,0,0,0,0,0,0,0,0,0,0,0,0,0,0,0,0,0,0,0,0,0,0,0,0,0,0,0,0,0,0,0,0,0,0,0,0,0,0,0,0,0,0,0,0,0,0,0,0,0,0,0,0,0,0,0,0,-0.8735,-0.8735,0,-0.8772,-0.8772,-0.8772,-0.8755,-0.8754,-0.8753,-0.8752,-0.879,-0.8792,-0.8794,0,0,0,0,0,0,0,0,0,0,0,0,0,-0.8649,-0.865,-0.8735,-0.8735,-0.8736,-0.8772,-0.8772,-0.8773,-0.8755,-0.8754,-0.8753,-0.8752,-0.8789,-0.8791,-0.8794,0,0,0,0,0,0,0,0,0,0,0,0,0,-0.8686,-0.8651,-0.8735,-0.8731,-0.8731,-0.8771,-0.8772,-0.8773,-0.8755,-0.8754,-0.8753,-0.8751,-0.8789,-0.8791,-0.8794,-0.8839,0,0,-0.8803,-0.8804,0,0,0,0,0,0,0,0,-0.8684,-0.8689,-0.8731,-0.8732,-0.8732,-0.8757,-0.8755,-0.8795,-0.8756,-0.8746,-0.8752,-0.8751,-0.878,-0.8784,-0.8794,-0.8841,-0.8843,-0.8803,-0.8805,-0.8806,-0.8807,0,0,0,0,0,0,0,-0.8681,-0.8687,-0.8749,-0.8732,-0.8732,-0.8728,-0.8732,-0.8763,-0.8771,-0.8747,-0.8746,-0.875,-0.878,-0.8791,-0.8794,-0.8843,-0.8803,-0.8805,-0.8807,-0.8808,-0.8929,-0.893,0,0,0,0,0,0,-0.8679,-0.8685,-0.8748,-0.875,-0.8704,-0.873,-0.8735,-0.8751,-0.877,-0.8772,-0.8752,-0.875,-0.8787,-0.8791,-0.8796,-0.8849,-0.8806,-0.8808,-0.881,-0.8927,-0.8929,-0.8931,0,0,0,0,0,0,-0.8677,-0.8685,-0.8747,-0.8718,-0.8725,-0.8733,-0.8751,-0.8752,-0.8763,-0.8774,-0.8775,-0.8761,-0.8786,-0.8792,-0.8828,-0.885,-0.881,-0.8812,-0.8926,-0.8928,-0.893,-0.8957,0,0,0,0,0,0,-0.8675,-0.8684,-0.8701,-0.8718,-0.8727,-0.8779,-0.8753,-0.8754,-0.8768,-0.8765,-0.8783,-0.8785,-0.8785,-0.8824,-0.8831,-0.8853,-0.8814,-0.8924,-0.8927,-0.8929,-0.8954,-0.896,-0.8965,0,0,0,0,0,-0.8672,-0.8708,-0.8702,-0.871,-0.8749,-0.878,-0.8785,-0.8785,-0.877,-0.8787,-0.8794,-0.8784,-0.8847,-0.8828,-0.8836,-0.8859,-0.8922,-0.8926,-0.8929,-0.8952,-0.8959,-0.8965,0,0,0,0,0,0,-0.8693,-0.871,-0.8704,-0.8747,-0.8762,-0.8777,-0.8799,-0.8793,-0.8813,-0.881,-0.8809,-0.8813,-0.8851,-0.8859,-0.8838,-0.8904,-0.8882,-0.8887,-0.8897,-0.8904,-0.8909,-0.8906,-0.8817,0,0,0,0,0,-0.8703,-0.8728,-0.8741,-0.8777,-0.8785,-0.8791,-0.8805,-0.8803,-0.8819,-0.8826,-0.8835,-0.8851,-0.8874,-0.8889,-0.8911,-0.8956,-0.8959,-0.8975,-0.8981,-0.8985,-0.8989,-0.9012,-0.9019,-0.8942,-0.8942,-0.8942,0,0,-0.8724,-0.8736,-0.8751,-0.8782,-0.8794,-0.8819,-0.8797,-0.8824,-0.8843,-0.883,-0.8865,-0.8873,-0.889,-0.893,-0.8949,-0.8938,-0.9011,-0.8989,-0.8993,-0.8995,-0.9016,-0.9024,-0.903,-0.8945,-0.8944,-0.8944,0,0,-0.8774,-0.8786,-0.8817,-0.8829,-0.8847,-0.8851,-0.8858,-0.8874,-0.8879,-0.8914,-0.8905,-0.8927,-0.8967,-0.8979,-0.8991,-0.9045,-0.9037,-0.9053,-0.908,-0.9103,-0.9109,-0.9114,-0.9132,-0.9139,-0.9057,-0.9057,-0.9057,0,-0.8797,-0.8834,-0.8834,-0.8862,-0.8875,-0.8865,-0.8896,-0.8908,-0.8932,-0.8942,-0.893,-0.8979,-0.8991,-0.9033,-0.9046,-0.9057,-0.9065,-0.905,-0.9108,-0.9113,-0.9118,-0.9136,-0.9143,-0.9059,-0.9059,-0.9058,-0.9058,0,-0.8861,-0.8887,-0.891,-0.8934,-0.895,-0.8979,-0.8983,-0.8999,-0.8997,-0.9001,-0.9037,-0.905,-0.9074,-0.9084,-0.9082,-0.9126,-0.9119,-0.9108,-0.9086,-0.9127,-0.9144,-0.915,-0.9061,-0.9061,-0.906,-0.906,0,0,-0.8925,-0.8948,-0.8956,-0.8967,-0.8986,-0.9006,-0.9035,-0.9058,-0.9072,-0.9089,-0.9113,-0.9147,-0.9136,-0.915,-0.9149,-0.9168,-0.9209,-0.9154,-0.9155,-0.9163,-0.9258,-0.9266,-0.9274,-0.9204,-0.9206,-0.9207,-0.9256,0,-0.8975,-0.9026,-0.9026,-0.9073,-0.9096,-0.9087,-0.9112,-0.9127,-0.9132,-0.9152,-0.9158,-0.9182,-0.9167,-0.9174,-0.9194,-0.92,-0.9228,-0.9197,-0.9226,-0.9227,-0.922,-0.9283,-0.9291,-0.9337,-0.9263,-0.9264,-0.9265,0,-0.9041,-0.906,-0.9109,-0.9124,-0.9134,-0.9157,-0.9178,-0.9198,-0.9214,-0.9216,-0.9231,-0.9227,-0.9256,-0.9234,-0.9273,-0.9252,-0.9264,-0.9269,-0.9271,-0.9272,-0.9247,-0.9285,-0.9352,-0.9359,-0.9275,-0.9274,-0.9274,0,-0.9081,-0.9119,-0.9153,-0.9163,-0.9182,-0.9197,-0.9206,-0.9221,-0.9235,-0.9253,-0.9262,-0.9284,-0.9296,-0.9312,-0.9314,-0.9298,-0.9354,-0.9332,-0.9356,-0.9356,-0.9367,-0.9366,-0.9436,-0.9376,-0.9376,-0.9376,-0.9376,0,-0.9137,-0.9167,-0.9172,-0.9192,-0.9225,-0.9226,-0.9258,-0.9266,-0.9279,-0.93,-0.9294,-0.9314,-0.9316,-0.9337,-0.9338,-0.937,-0.9376,-0.9378,-0.9378,-0.9378,-0.9377,-0.9385,-0.9381,-0.9378,-0.9378,-0.9377,-0.9377,0,-0.9187,-0.9192,-0.9228,-0.9243,-0.9247,-0.9271,-0.9284,-0.9303,-0.9308,-0.9335,-0.9342,-0.9349,-0.9373,-0.9377,-0.9405,-0.9406,-0.9444,-0.9442,-0.9439,-0.9438,-0.9461,-0.9458,-0.9537,-0.9547,-0.9482,-0.9483,-0.9484,0,-0.9221,-0.9244,-0.9262,-0.9276,-0.9285,-0.9308,-0.9322,-0.9323,-0.9338,-0.9358,-0.9375,-0.9399,-0.9417,-0.9456,-0.9464,-0.9486,-0.9482,-0.9509,-0.9486,-0.9485,-0.9482,-0.948,-0.9481,-0.9513,-0.9514,-0.9514,-0.9515,0,-0.9282,-0.9283,-0.9304,-0.9325,-0.9342,-0.9359,-0.9375,-0.9387,-0.939,-0.9407,-0.9432,-0.9446,-0.9475,-0.9498,-0.952,-0.9528,-0.9522,-0.9522,-0.9528,-0.9528,-0.9525,-0.9526,-0.945,-0.952,-0.9519,-0.9519,-0.9519,-0.9518,-0.9324,-0.9344,-0.9359,-0.9382,-0.9394,-0.9409,-0.9428,-0.9435,-0.9456,-0.948,-0.9479,-0.9506,-0.9521,-0.9549,-0.9559,-0.958,-0.9571,-0.9581,-0.9583,-0.9585,-0.9587,-0.9523,-0.9584,-0.9584,-0.9584,-0.9583,-0.9583,0,-0.9383,-0.9393,-0.9414,-0.9436,-0.9455,-0.9447,-0.9465,-0.948,-0.9504,-0.9519,-0.9537,-0.9565,-0.9588,-0.9597,-0.9619,-0.9634,-0.9631,-0.9639,-0.9638,-0.964,-0.9594,-0.9585,-0.9641,-0.9641,-0.9641,-0.9641,-0.9641,-0.9641,-0.9416,-0.9448,-0.9451,-0.9489,-0.9499,-0.9525,-0.9535,-0.9549,-0.956,-0.9592,-0.9611,-0.9617,-0.9629,-0.9652,-0.9672,-0.9674,-0.9682,-0.9691,-0.9692,-0.9649,-0.9643,-0.9637,-0.9629,-0.9693,-0.9693,-0.9736,-0.9736,-0.9737]},{"header":{"parameterUnit":"m.s-1","parameterCategory":1,"la1":30.2991,"la2":30.254,"lo1":-89.0895,"lo2":-89.0444,"dy":0.0017,"dx":0.0017,"nx":28,"ny":28,"refTime":"2023-10-09T21:00:00:Z","depth":0,"parameterNumber":3,"parameterNumberName":"V-component_of_WINDS"},"data":[0,0,0,0,0,0,0,0,0,0,0,0,0,0,0,0,0,0,0,0,0,0,0,0,0,0,0,0,0,0,0,0,0,0,0,0,0,0,0,0,0,0,0,0,0,0,0,0,0,0,0,0,0,0,0,0,0,0,-0.6365,-0.6366,0,-0.6425,-0.6426,-0.6427,-0.6436,-0.6436,-0.6435,-0.6435,-0.6498,-0.65,-0.6502,0,0,0,0,0,0,0,0,0,0,0,0,0,-0.626,-0.6261,-0.6365,-0.6366,-0.6367,-0.6425,-0.6426,-0.6427,-0.6436,-0.6436,-0.6435,-0.6435,-0.6497,-0.65,-0.6502,0,0,0,0,0,0,0,0,0,0,0,0,0,-0.6311,-0.6262,-0.6365,-0.6378,-0.638,-0.6425,-0.6426,-0.6427,-0.6437,-0.6436,-0.6435,-0.6434,-0.6496,-0.6499,-0.6503,-0.6539,0,0,-0.6513,-0.6514,0,0,0,0,0,0,0,0,-0.6308,-0.6315,-0.6376,-0.6377,-0.638,-0.6422,-0.6412,-0.6465,-0.6437,-0.6415,-0.6435,-0.6434,-0.6473,-0.6479,-0.6492,-0.6542,-0.6544,-0.6513,-0.6515,-0.6516,-0.6517,0,0,0,0,0,0,0,-0.6305,-0.6312,-0.6389,-0.6376,-0.6379,-0.6382,-0.6388,-0.6422,-0.6448,-0.6417,-0.6418,-0.6425,-0.6474,-0.6488,-0.6493,-0.6545,-0.6513,-0.6516,-0.6518,-0.6519,-0.6628,-0.6629,0,0,0,0,0,0,-0.6298,-0.6309,-0.6387,-0.6391,-0.6341,-0.6384,-0.6392,-0.641,-0.6448,-0.6453,-0.6425,-0.6425,-0.6483,-0.6489,-0.6495,-0.654,-0.6516,-0.6519,-0.6521,-0.6627,-0.6628,-0.6629,0,0,0,0,0,0,-0.6296,-0.6305,-0.6385,-0.635,-0.6361,-0.6387,-0.6407,-0.6411,-0.6425,-0.6454,-0.6459,-0.6435,-0.6483,-0.6491,-0.6528,-0.6542,-0.6521,-0.6524,-0.6626,-0.6627,-0.6628,-0.6629,0,0,0,0,0,0,-0.6293,-0.6304,-0.6318,-0.6351,-0.6362,-0.6415,-0.6408,-0.6413,-0.6431,-0.6431,-0.6464,-0.6469,-0.6483,-0.6523,-0.6531,-0.6546,-0.6526,-0.6624,-0.6626,-0.6628,-0.6628,-0.663,-0.6633,0,0,0,0,0,-0.6289,-0.6316,-0.6319,-0.6328,-0.638,-0.6416,-0.6423,-0.6438,-0.6432,-0.6446,-0.6464,-0.6468,-0.6539,-0.6526,-0.6536,-0.6552,-0.6624,-0.6626,-0.6628,-0.6627,-0.663,-0.6632,0,0,0,0,0,0,-0.6285,-0.6321,-0.6324,-0.6362,-0.6386,-0.6418,-0.6436,-0.6441,-0.6467,-0.6466,-0.6484,-0.6492,-0.6528,-0.6544,-0.6529,-0.6589,-0.6581,-0.6585,-0.6577,-0.658,-0.6583,-0.6578,-0.6529,0,0,0,0,0,-0.6289,-0.6315,-0.6345,-0.6376,-0.6387,-0.641,-0.6426,-0.6435,-0.6461,-0.6471,-0.6493,-0.6518,-0.6546,-0.6564,-0.6592,-0.663,-0.6638,-0.6646,-0.6649,-0.665,-0.6654,-0.6675,-0.6679,-0.6636,-0.6636,-0.6636,0,0,-0.6297,-0.6319,-0.6335,-0.6375,-0.6395,-0.6422,-0.6418,-0.6447,-0.6467,-0.6476,-0.6512,-0.6528,-0.6558,-0.6595,-0.6613,-0.661,-0.6667,-0.6653,-0.6654,-0.6657,-0.6678,-0.6682,-0.6685,-0.6637,-0.6637,-0.6637,0,0,-0.6324,-0.6344,-0.6371,-0.6391,-0.6421,-0.6435,-0.6442,-0.6473,-0.6484,-0.652,-0.6528,-0.6552,-0.66,-0.6621,-0.6637,-0.6672,-0.6677,-0.6681,-0.6693,-0.6713,-0.6717,-0.672,-0.6732,-0.6736,-0.6684,-0.6684,-0.6684,0,-0.633,-0.637,-0.6385,-0.6413,-0.6431,-0.644,-0.6468,-0.6487,-0.6524,-0.6536,-0.6532,-0.6592,-0.6613,-0.6655,-0.6664,-0.6677,-0.6685,-0.6677,-0.6715,-0.6718,-0.6721,-0.6733,-0.6738,-0.6684,-0.6684,-0.6684,-0.6684,0,-0.6376,-0.6404,-0.6422,-0.6457,-0.6477,-0.6505,-0.6525,-0.6544,-0.6551,-0.6566,-0.6603,-0.6628,-0.666,-0.6671,-0.668,-0.6715,-0.6712,-0.6711,-0.6703,-0.6726,-0.6737,-0.6742,-0.6685,-0.6685,-0.6685,-0.6685,0,0,-0.6402,-0.6445,-0.6452,-0.6467,-0.6501,-0.6523,-0.6551,-0.6583,-0.6598,-0.6624,-0.6648,-0.6688,-0.6688,-0.6707,-0.6717,-0.6735,-0.6761,-0.6732,-0.6733,-0.6736,-0.6802,-0.6802,-0.6807,-0.6764,-0.6765,-0.6766,-0.6799,0,-0.6433,-0.6484,-0.6498,-0.6541,-0.6567,-0.6576,-0.6601,-0.6624,-0.6639,-0.6663,-0.668,-0.6708,-0.6706,-0.6717,-0.6735,-0.6754,-0.6774,-0.6752,-0.6787,-0.6788,-0.6779,-0.6813,-0.6813,-0.6843,-0.6804,-0.6804,-0.6805,0,-0.6476,-0.6502,-0.6547,-0.6576,-0.6588,-0.661,-0.6639,-0.6663,-0.6689,-0.6699,-0.672,-0.6729,-0.6759,-0.675,-0.6792,-0.6777,-0.6792,-0.6803,-0.6805,-0.6809,-0.6797,-0.6817,-0.6853,-0.6857,-0.6812,-0.6812,-0.6811,0,-0.649,-0.6536,-0.6569,-0.6582,-0.6618,-0.6633,-0.6649,-0.6674,-0.6692,-0.6718,-0.673,-0.676,-0.6776,-0.6799,-0.6816,-0.6807,-0.6856,-0.6848,-0.6865,-0.6865,-0.6875,-0.6874,-0.6913,-0.6885,-0.6885,-0.6885,-0.6885,0,-0.6523,-0.655,-0.6575,-0.6596,-0.6626,-0.6643,-0.6673,-0.6689,-0.6712,-0.6736,-0.6746,-0.6768,-0.6789,-0.6814,-0.6827,-0.686,-0.6868,-0.6876,-0.6879,-0.6875,-0.6874,-0.6885,-0.6883,-0.6886,-0.6886,-0.6886,-0.6886,0,-0.6544,-0.6562,-0.6598,-0.6628,-0.6637,-0.6658,-0.6684,-0.6704,-0.672,-0.675,-0.6758,-0.6782,-0.6812,-0.6831,-0.6869,-0.6878,-0.6914,-0.6917,-0.6905,-0.6906,-0.6921,-0.692,-0.6969,-0.6976,-0.6944,-0.6944,-0.6945,0,-0.6563,-0.6584,-0.6617,-0.6633,-0.6648,-0.6674,-0.6692,-0.671,-0.6728,-0.676,-0.6776,-0.6807,-0.6832,-0.688,-0.6901,-0.693,-0.6934,-0.6949,-0.6938,-0.6933,-0.6933,-0.6932,-0.6934,-0.6951,-0.6951,-0.6951,-0.6951,0,-0.6596,-0.6603,-0.6628,-0.6657,-0.6678,-0.6701,-0.6725,-0.6738,-0.6759,-0.6779,-0.681,-0.6829,-0.6868,-0.6898,-0.6929,-0.6946,-0.6952,-0.6955,-0.696,-0.6955,-0.6947,-0.6951,-0.6909,-0.6953,-0.6953,-0.6953,-0.6953,-0.6953,-0.6616,-0.6635,-0.666,-0.6688,-0.6707,-0.6729,-0.6749,-0.6767,-0.6792,-0.6825,-0.6834,-0.6865,-0.6892,-0.6934,-0.6951,-0.6977,-0.6975,-0.6983,-0.6985,-0.6986,-0.6986,-0.6944,-0.6983,-0.6983,-0.6983,-0.6983,-0.6983,0,-0.6648,-0.6665,-0.669,-0.6722,-0.6744,-0.6748,-0.6774,-0.6792,-0.682,-0.6843,-0.6868,-0.6903,-0.6932,-0.6956,-0.6986,-0.7002,-0.7005,-0.7009,-0.7008,-0.7011,-0.6986,-0.6978,-0.7006,-0.7006,-0.7006,-0.7006,-0.7005,-0.7005,-0.6668,-0.6699,-0.671,-0.6752,-0.6769,-0.6799,-0.6814,-0.6834,-0.6853,-0.6891,-0.6915,-0.693,-0.6954,-0.6986,-0.7013,-0.702,-0.703,-0.7033,-0.704,-0.7016,-0.7013,-0.7011,-0.7003,-0.7035,-0.7035,-0.7063,-0.7063,-0.7063]}]]